Location: Paddlesworth
(51.1000°N, 1.1333°E)
Time: 09:11:55
(UTC+00:00)

Cosmos 773 Rocket - Pass Details

Date: 11 May 2021
Orbit: 745 x 777 km, 74.1° (Epoch: 15 June)

Event Time Altitude Azimuth Distance (km) Brightness Sun altitude
Rises 20:09:07 0° 336° (NNW) 3,271 8.5 -5.4°
Reaches altitude 10° 20:11:32 10° 339° (NNW) 2,340 7.6 -5.7°
Maximum altitude 20:16:51 68° 63° (ENE) 837 4.2 -6.4°
Drops below altitude 10° 20:22:06 10° 147° (SSE) 2,317 5.9 -7.0°
Enters shadow 20:22:41 - 147° (SSE) 2,537 6.1 -7.1°
